Tracking 22454 objects as of 5-Mar-2021
HD Live streaming from Space Station
objects crossing your sky now

DELTA 1 DEB

Track DELTA 1 DEB now!
10-day predictions


NORAD ID: 21270
Int'l Code: 1975-052F
Perigee: 1,085.7 km
Apogee: 1,785.6 km
Inclination: 99.4 °
Period: 114.4 minutes
Semi major axis: 7806 km
RCS: 0.0854 m2 (small)
Launch date: June 12, 1975
Source: United States (US)
Launch site: AIR FORCE WESTERN TEST RANGE (AFWTR)

Note: This is SATELLITE DEBRIS
aabbcc
Your satellite tracking list
Your tracking list is empty




NASA's NSSDC Master Catalog

Two Line Element Set (TLE):
1 21270U 75052F   21063.54704546  .00000265  00000-0  11891-2 0  9993
2 21270  99.4274  77.7431 0448294  24.2008 125.9414 12.58652417366063
Source of the keplerian elements: AFSPC